User: anonymous   Login
Location: Bieujac
(44.5398°N, 0.1549°W)
Time: 10:48:58
(UTC+00:00)
Language:

Cosmos 2346 Rocket - Orbit

View from above orbital plane
View from above orbital plane
View from above satellite
View from above satellite

Ground track
Ground track

The orbit data is extracted from the following two-line orbital elements,

1 24955U 97052C   20028.78461176  .00000004  00000-0 -10690-4 0  9995
2 24955  82.9202 273.8247 0029058 320.7844  39.1210 13.81548141126680
Epoch (UTC): 28 January 2020 18:49:50
Eccentricity: 0.0029058
inclination: 82.9202°
perigee height: 937 km
apogee height: 980 km
right ascension of ascending node: 273.8247°
argument of perigee: 320.7844°
revolutions per day: 13.81548141
mean anomaly at epoch: 39.1210°
orbit number at epoch: 12668

The dashed part of the orbit path shows where the satellite is in the earth's shadow,  

DLR